Date String (YYYY-MM-DD hh:mm:ss) UTC,Instrument flags,absolute air pressure of the measurement (hPa),sample flow rate (lpm),inlet stack bypass flow (lpm),air temperature of the measurement (°C),ambient temperature measured by the external sensor (°C),aerosol sample conditioner tube jacket temperature (°C),OPC LED temperature (°C),internal box temperature (°C),relative humidity of the measurement (%),span deviation,mass concentration of particles derived from Lorenz-Mie calculation of OPC scattering (μg/m³),mass concentration of particles derived from Lorenz-Mie calculation of OPC scattering (μg/m³),mass concentration of particles derived from Lorenz-Mie calculation of OPC scattering (μg/m³)
DateTimeUTC,F1_M11,P_M11,Q1_M11,Q2_M11,T1_M11,T2_M11,T3_M11,T4_M11,T5_M11,U1_M11,ZSPAN_M11,X0_M11,X2_M11,X1_M11
2024-04-23 17:00:00,SystemResetWarning,0831.9,5.00,000.00,025.9,025.1,000.0,034.4,027.7,011.6,0000.0,0009.80,0003.22,0001.72
2024-04-23 17:01:00,SystemResetWarning,0831.9,5.01,000.00,025.9,025.1,000.0,034.4,027.7,011.9,0000.0,0009.24,0003.27,0001.76
2024-04-23 17:02:00,SystemResetWarning,0831.9,5.01,000.00,025.9,025.1,000.0,034.4,027.7,013.0,0000.0,0009.32,0003.31,0001.78
2024-04-23 17:03:00,SystemResetWarning,0832.0,5.00,000.00,025.9,025.2,000.0,034.4,027.7,012.1,0000.0,0009.35,0003.24,0001.79
2024-04-23 17:04:00,SystemResetWarning,0832.0,4.99,000.00,025.9,025.2,000.0,034.4,027.7,012.0,0000.0,0009.34,0003.21,0001.79
2024-04-23 17:05:00,SystemResetWarning,0832.0,5.00,000.00,025.9,025.2,000.0,034.4,027.7,011.7,0000.0,0010.31,0003.26,0001.81
2024-04-23 17:06:00,SystemResetWarning,0832.0,5.00,000.00,025.9,025.1,000.0,034.4,027.7,011.4,0000.0,0010.81,0003.24,0001.79
2024-04-23 17:07:00,SystemResetWarning,0832.0,5.00,000.00,025.9,025.1,000.0,034.4,027.7,011.6,0000.0,0010.90,0003.24,0001.80
2024-04-23 17:08:00,SystemResetWarning,0832.0,5.00,000.00,025.9,025.1,000.0,034.4,027.7,011.8,0000.0,0010.95,0003.27,0001.81
2024-04-23 17:09:00,SystemResetWarning,0831.9,5.00,000.00,025.9,025.1,000.0,034.4,027.7,012.5,0000.0,0011.19,0003.34,0001.81
2024-04-23 17:10:00,SystemResetWarning,0831.9,5.01,000.00,025.9,025.2,000.0,034.4,027.8,012.0,0000.0,0011.42,0003.39,0001.79
2024-04-23 17:11:00,SystemResetWarning,0831.9,5.00,000.00,026.0,025.2,000.0,034.4,027.8,011.8,0000.0,0010.77,0003.36,0001.75
2024-04-23 17:12:00,SystemResetWarning,0831.9,5.00,000.00,026.0,025.2,000.0,034.4,027.8,011.6,0000.0,0010.30,0003.30,0001.70
2024-04-23 17:13:00,SystemResetWarning,0831.8,4.99,000.00,026.0,025.3,000.0,034.4,027.9,011.6,0000.0,0009.64,0003.26,0001.68
2024-04-23 17:14:00,SystemResetWarning,0831.8,4.99,000.00,026.0,025.3,000.0,034.4,027.9,011.7,0000.0,0009.79,0003.32,0001.69
2024-04-23 17:15:00,SystemResetWarning,0831.8,5.00,000.00,026.0,025.3,000.0,034.4,027.9,011.7,0000.0,0010.20,0003.33,0001.71
2024-04-23 17:16:00,SystemResetWarning,0831.9,5.00,000.00,026.0,025.4,000.0,034.5,027.9,012.0,0000.0,0009.34,0003.33,0001.72
2024-04-23 17:17:00,SystemResetWarning,0831.8,5.00,000.00,026.0,025.4,000.0,034.5,027.9,012.3,0000.0,0008.89,0003.35,0001.74
2024-04-23 17:18:00,SystemResetWarning,0832.0,5.01,000.00,026.1,025.4,000.0,034.5,027.9,011.6,0000.0,0008.75,0003.36,0001.74
2024-04-23 17:19:00,SystemResetWarning,0832.1,5.00,000.00,026.1,025.4,000.0,034.5,027.9,011.7,0000.0,0008.67,0003.35,0001.74
2024-04-23 17:20:00,SystemResetWarning,0832.2,5.00,000.00,026.1,025.4,000.0,034.5,027.9,011.8,0000.0,0008.51,0003.32,0001.76
2024-04-23 17:21:00,SystemResetWarning,0832.1,5.00,000.00,026.1,025.4,000.0,034.5,027.9,012.4,0000.0,0008.35,0003.29,0001.78
2024-04-23 17:22:00,SystemResetWarning,0831.8,5.01,000.00,026.1,025.4,000.0,034.5,027.9,012.1,0000.0,0008.43,0003.29,0001.79
2024-04-23 17:23:00,SystemResetWarning,0831.8,5.00,000.00,026.1,025.4,000.0,034.5,027.9,012.0,0000.0,0009.34,0003.36,0001.83
2024-04-23 17:24:00,SystemResetWarning,0831.8,5.00,000.00,026.1,025.4,000.0,034.5,027.9,012.0,0000.0,0009.78,0003.39,0001.86
2024-04-23 17:25:00,SystemResetWarning,0831.8,5.00,000.00,026.1,025.4,000.0,034.5,027.9,011.9,0000.0,0009.75,0003.40,0001.88
2024-04-23 17:26:00,SystemResetWarning,0831.8,5.00,000.00,026.1,025.4,000.0,034.5,027.9,011.9,0000.0,0009.51,0003.44,0001.88
2024-04-23 17:27:00,SystemResetWarning,0832.2,5.00,000.00,026.1,025.4,000.0,034.6,027.9,011.7,0000.0,0010.64,0003.43,0001.89
2024-04-23 17:28:00,SystemResetWarning,0832.1,4.99,000.00,026.1,025.4,000.0,034.6,028.0,011.8,0000.0,0011.25,0003.47,0001.92
2024-04-23 17:29:00,SystemResetWarning,0832.1,5.00,000.00,026.1,025.4,000.0,034.6,028.0,011.6,0000.0,0011.52,0003.48,0001.93
2024-04-23 17:30:00,SystemResetWarning,0832.1,4.99,000.00,026.1,025.4,000.0,034.6,028.0,011.9,0000.0,0011.58,0003.49,0001.98
2024-04-23 17:31:00,SystemResetWarning,0832.1,5.00,000.00,026.1,025.4,000.0,034.6,028.0,011.7,0000.0,0011.74,0003.45,0001.98
2024-04-23 17:32:00,SystemResetWarning,0831.9,5.00,000.00,026.2,025.5,000.0,034.6,028.0,011.9,0000.0,0011.79,0003.44,0002.00
2024-04-23 17:33:00,SystemResetWarning,0832.1,5.00,000.00,026.2,025.5,000.0,034.6,028.0,011.5,0000.0,0012.36,0003.44,0002.02
2024-04-23 17:34:00,SystemResetWarning,0832.4,5.00,000.00,026.2,025.5,000.0,034.6,028.0,011.7,0000.0,0012.56,0003.41,0002.01
2024-04-23 17:35:00,SystemResetWarning,0831.8,5.00,000.00,026.2,025.5,000.0,034.6,028.1,012.0,0000.0,0012.65,0003.39,0002.01
2024-04-23 17:36:00,SystemResetWarning,0831.8,5.01,000.00,026.2,025.5,000.0,034.6,028.1,012.3,0000.0,0013.02,0003.41,0002.02
2024-04-23 17:37:00,SystemResetWarning,0831.7,5.00,000.00,026.2,025.5,000.0,034.6,028.1,011.9,0000.0,0013.38,0003.42,0002.03
2024-04-23 17:38:00,SystemResetWarning,0832.1,5.00,000.00,026.2,025.6,000.0,034.6,028.1,012.8,0000.0,0012.81,0003.47,0002.02
2024-04-23 17:39:00,SystemResetWarning,0831.8,5.00,000.00,026.2,025.6,000.0,034.7,028.1,012.0,0000.0,0013.75,0003.44,0002.02
2024-04-23 17:40:00,SystemResetWarning,0831.7,5.00,000.00,026.3,025.6,000.0,034.7,028.1,011.8,0000.0,0014.08,0003.45,0002.01
2024-04-23 17:41:00,SystemResetWarning,0831.7,5.01,000.00,026.3,025.6,000.0,034.7,028.1,012.1,0000.0,0014.46,0003.44,0001.98
2024-04-23 17:42:00,SystemResetWarning,0831.7,4.99,000.00,026.3,025.6,000.0,034.7,028.1,012.3,0000.0,0014.50,0003.45,0001.96
2024-04-23 17:43:00,SystemResetWarning,0831.7,4.99,000.00,026.3,025.6,000.0,034.7,028.1,012.1,0000.0,0014.49,0003.48,0001.95
2024-04-23 17:44:00,SystemResetWarning,0831.7,5.00,000.00,026.3,025.6,000.0,034.7,028.1,012.0,0000.0,0013.93,0003.49,0001.96
2024-04-23 17:45:00,SystemResetWarning,0831.7,5.00,000.00,026.3,025.6,000.0,034.7,028.1,011.9,0000.0,0013.17,0003.50,0001.97
2024-04-23 17:46:00,SystemResetWarning,0831.7,5.00,000.00,026.3,025.5,000.0,034.7,028.1,011.9,0000.0,0012.61,0003.51,0001.98
2024-04-23 17:47:00,SystemResetWarning,0831.6,5.00,000.00,026.3,025.5,000.0,034.7,028.1,012.0,0000.0,0012.35,0003.53,0001.99
2024-04-23 17:48:00,SystemResetWarning,0831.6,5.00,000.00,026.3,025.5,000.0,034.7,028.1,012.1,0000.0,0012.41,0003.53,0002.00
2024-04-23 17:49:00,SystemResetWarning,0831.6,5.00,000.00,026.3,025.5,000.0,034.7,028.1,011.8,0000.0,0012.28,0003.52,0002.04
2024-04-23 17:50:00,SystemResetWarning,0831.6,4.99,000.00,026.3,025.5,000.0,034.7,028.1,012.0,0000.0,0011.52,0003.56,0002.08
2024-04-23 17:51:00,SystemResetWarning,0831.6,4.99,000.00,026.3,025.5,000.0,034.7,028.1,012.0,0000.0,0011.22,0003.59,0002.13
2024-04-23 17:52:00,SystemResetWarning,0831.6,5.00,000.00,026.3,025.5,000.0,034.7,028.1,011.8,0000.0,0011.33,0003.60,0002.17
2024-04-23 17:53:00,SystemResetWarning,0831.6,5.01,000.00,026.3,025.5,000.0,034.8,028.1,012.2,0000.0,0011.96,0003.63,0002.22
2024-04-23 17:54:00,SystemResetWarning,0831.6,5.01,000.00,026.3,025.5,000.0,034.8,028.1,012.5,0000.0,0012.11,0003.67,0002.26
2024-04-23 17:55:00,SystemResetWarning,0831.5,4.99,000.00,026.3,025.5,000.0,034.8,028.1,012.8,0000.0,0012.91,0003.68,0002.27
2024-04-23 17:56:00,SystemResetWarning,0831.5,4.99,000.00,026.3,025.6,000.0,034.8,028.1,012.2,0000.0,0014.00,0003.71,0002.29
2024-04-23 17:57:00,SystemResetWarning,0831.5,5.00,000.00,026.3,025.6,000.0,034.8,028.1,012.0,0000.0,0014.09,0003.73,0002.32
2024-04-23 17:58:00,SystemResetWarning,0831.5,5.00,000.00,026.3,025.6,000.0,034.8,028.2,012.2,0000.0,0014.03,0003.71,0002.34
2024-04-23 17:59:00,SystemResetWarning,0831.5,5.00,000.00,026.3,025.6,000.0,034.8,028.2,011.9,0000.0,0013.62,0003.68,0002.36
